******** Week 356 almanac for PRN-1 ******** ID: 1 Health: 0 Eccentricity: 0.001481056213 Time of Applicability(s): 503808 Orbital Inclination(rad): 0.9584347915 Rate of Right Ascen(r/s): -7.908900866e-09 SQRT(A) (m 1/2): 5153.581543 Right Ascen at Week(rad): -2.647365841 Argument of Perigee(rad): 0.03208139558 Mean Anom(rad): 1.402324715 Af0(s): 0.0002652933594 Af1(s/s): -3.637979e-12 week: 356 ******** Week 356 almanac for PRN-2 ******** ID: 2 Health: 0 Eccentricity: 0.01695251465 Time of Applicability(s): 503808 Orbital Inclination(rad): 0.963839677 Rate of Right Ascen(r/s): -7.851755628e-09 SQRT(A) (m 1/2): 5153.555664 Right Ascen at Week(rad): -2.809942713 Argument of Perigee(rad): -0.8306947888 Mean Anom(rad): 2.825359295 Af0(s): 2.637860107e-05 Af1(s/s): 7.275958e-12 week: 356 ******** Week 356 almanac for PRN-3 ******** ID: 3 Health: 0 Eccentricity: 0.006391525269 Time of Applicability(s): 503808 Orbital Inclination(rad): 0.9927935643 Rate of Right Ascen(r/s): -7.611745631e-09 SQRT(A) (m 1/2): 5153.59668 Right Ascen at Week(rad): -1.661046155 Argument of Perigee(rad): 1.205010444 Mean Anom(rad): -0.783493421 Af0(s): 0.0004559729614 Af1(s/s): -1.091394e-11 week: 356 ******** Week 356 almanac for PRN-4 ******** ID: 4 Health: 0 Eccentricity: 0.00372838974 Time of Applicability(s): 503808 Orbital Inclination(rad): 0.9704969139 Rate of Right Ascen(r/s): -8.000333246e-09 SQRT(A) (m 1/2): 5153.687012 Right Ascen at Week(rad): -0.5898111191 Argument of Perigee(rad): -2.895587227 Mean Anom(rad): 2.235959384 Af0(s): 3.391534424e-05 Af1(s/s): 3.637979e-12 week: 356 ******** Week 356 almanac for PRN-5 ******** ID: 5 Health: 0 Eccentricity: 0.00536441803 Time of Applicability(s): 503808 Orbital Inclination(rad): 0.9793772246 Rate of Right Ascen(r/s): -7.726036106e-09 SQRT(A) (m 1/2): 5153.645996 Right Ascen at Week(rad): -1.72049952 Argument of Perigee(rad): 1.420438497 Mean Anom(rad): 2.873101451 Af0(s): -0.0001808818359 Af1(s/s): 0 week: 356 ******** Week 356 almanac for PRN-6 ******** ID: 6 Health: 0 Eccentricity: 0.003871917725 Time of Applicability(s): 503808 Orbital Inclination(rad): 0.9873707026 Rate of Right Ascen(r/s): -7.600316584e-09 SQRT(A) (m 1/2): 5153.579102 Right Ascen at Week(rad): -2.697500348 Argument of Perigee(rad): -0.5958230804 Mean Anom(rad): 0.5680575038 Af0(s): -0.0004808442139 Af1(s/s): -3.637979e-12 week: 356 ******** Week 356 almanac for PRN-7 ******** ID: 7 Health: 0 Eccentricity: 0.02031612396 Time of Applicability(s): 503808 Orbital Inclination(rad): 0.9512262803 Rate of Right Ascen(r/s): -7.840326581e-09 SQRT(A) (m 1/2): 5153.582031 Right Ascen at Week(rad): 0.4187220772 Argument of Perigee(rad): -1.999195292 Mean Anom(rad): -0.3208705063 Af0(s): -0.0001153121704 Af1(s/s): -3.637979e-12 week: 356 ******** Week 356 almanac for PRN-8 ******** ID: 8 Health: 0 Eccentricity: 0.01151227951 Time of Applicability(s): 503808 Orbital Inclination(rad): 0.9437960608 Rate of Right Ascen(r/s): -8.320346576e-09 SQRT(A) (m 1/2): 5153.617188 Right Ascen at Week(rad): 2.466812258 Argument of Perigee(rad): 0.5121072773 Mean Anom(rad): 2.52037987 Af0(s): 0.0003911569702 Af1(s/s): -3.637979e-12 week: 356 ******** Week 356 almanac for PRN-9 ******** ID: 9 Health: 0 Eccentricity: 0.003319263458 Time of Applicability(s): 503808 Orbital Inclination(rad): 0.9646006753 Rate of Right Ascen(r/s): -8.080336578e-09 SQRT(A) (m 1/2): 5153.509277 Right Ascen at Week(rad): -0.6538859011 Argument of Perigee(rad): 2.066823022 Mean Anom(rad): 3.124882151 Af0(s): 0.0006089688477 Af1(s/s): 0 week: 356 ******** Week 356 almanac for PRN-10 ******** ID: 10 Health: 0 Eccentricity: 0.01096630096 Time of Applicability(s): 503808 Orbital Inclination(rad): 0.9923321717 Rate of Right Ascen(r/s): -7.623174678e-09 SQRT(A) (m 1/2): 5153.606445 Right Ascen at Week(rad): -1.663555726 Argument of Perigee(rad): -2.259341731 Mean Anom(rad): -1.764593228 Af0(s): -0.0004642633789 Af1(s/s): -3.637979e-12 week: 356 ******** Week 356 almanac for PRN-11 ******** ID: 11 Health: 0 Eccentricity: 0.002220630646 Time of Applicability(s): 503808 Orbital Inclination(rad): 0.9642171801 Rate of Right Ascen(r/s): -7.840326581e-09 SQRT(A) (m 1/2): 5153.516113 Right Ascen at Week(rad): -2.678183275 Argument of Perigee(rad): -2.289883528 Mean Anom(rad): 1.598738297 Af0(s): -0.0003542269287 Af1(s/s): 1.455192e-11 week: 356 ******** Week 356 almanac for PRN-12 ******** ID: 12 Health: 0 Eccentricity: 0.009059906006 Time of Applicability(s): 503808 Orbital Inclination(rad): 0.9588422552 Rate of Right Ascen(r/s): -7.886042771e-09 SQRT(A) (m 1/2): 5153.737793 Right Ascen at Week(rad): 1.536443172 Argument of Perigee(rad): 1.551126469 Mean Anom(rad): -0.9513920375 Af0(s): -0.0004800905395 Af1(s/s): 0 week: 356 ******** Week 356 almanac for PRN-13 ******** ID: 13 Health: 0 Eccentricity: 0.009949207306 Time of Applicability(s): 503808 Orbital Inclination(rad): 0.9762133892 Rate of Right Ascen(r/s): -7.920329913e-09 SQRT(A) (m 1/2): 5153.618164 Right Ascen at Week(rad): -0.4791192002 Argument of Perigee(rad): 0.9995865979 Mean Anom(rad): 2.257885273 Af0(s): 0.0005433991821 Af1(s/s): 0 week: 356 ******** Week 356 almanac for PRN-14 ******** ID: 14 Health: 0 Eccentricity: 0.006592750549 Time of Applicability(s): 503808 Orbital Inclination(rad): 0.9421961668 Rate of Right Ascen(r/s): -8.068907531e-09 SQRT(A) (m 1/2): 5153.596191 Right Ascen at Week(rad): 1.482168865 Argument of Perigee(rad): -2.75852477 Mean Anom(rad): -1.134174312 Af0(s): 0.0005795755493 Af1(s/s): 3.637979e-12 week: 356 ******** Week 356 almanac for PRN-15 ******** ID: 15 Health: 0 Eccentricity: 0.01660346985 Time of Applicability(s): 503808 Orbital Inclination(rad): 0.9423699381 Rate of Right Ascen(r/s): -8.308917528e-09 SQRT(A) (m 1/2): 5153.623047 Right Ascen at Week(rad): -0.7973513045 Argument of Perigee(rad): 1.497356248 Mean Anom(rad): 1.517247065 Af0(s): 0.0003029770752 Af1(s/s): 3.637979e-12 week: 356 ******** Week 356 almanac for PRN-16 ******** ID: 16 Health: 0 Eccentricity: 0.01506090164 Time of Applicability(s): 503808 Orbital Inclination(rad): 0.9579853831 Rate of Right Ascen(r/s): -7.920329913e-09 SQRT(A) (m 1/2): 5153.585449 Right Ascen at Week(rad): 1.553467887 Argument of Perigee(rad): 0.9257210787 Mean Anom(rad): -2.750884452 Af0(s): 0.0001605326294 Af1(s/s): 7.275958e-12 week: 356 ******** Week 356 almanac for PRN-17 ******** ID: 17 Health: 0 Eccentricity: 0.01273965836 Time of Applicability(s): 503808 Orbital Inclination(rad): 0.9595673008 Rate of Right Ascen(r/s): -8.160339911e-09 SQRT(A) (m 1/2): 5153.521484 Right Ascen at Week(rad): 2.571130067 Argument of Perigee(rad): -1.127942141 Mean Anom(rad): 2.427454565 Af0(s): -4.371311035e-05 Af1(s/s): -1.091394e-11 week: 356 ******** Week 356 almanac for PRN-18 ******** ID: 18 Health: 0 Eccentricity: 0.005707263946 Time of Applicability(s): 503808 Orbital Inclination(rad): 0.9723245082 Rate of Right Ascen(r/s): -7.760323248e-09 SQRT(A) (m 1/2): 5153.597656 Right Ascen at Week(rad): -2.702192172 Argument of Perigee(rad): -2.860239007 Mean Anom(rad): 0.443910671 Af0(s): -0.0003414144653 Af1(s/s): 1.091394e-11 week: 356 ******** Week 356 almanac for PRN-19 ******** ID: 19 Health: 0 Eccentricity: 0.01103210449 Time of Applicability(s): 503808 Orbital Inclination(rad): 0.9587763419 Rate of Right Ascen(r/s): -8.160339911e-09 SQRT(A) (m 1/2): 5153.656738 Right Ascen at Week(rad): 2.615031653 Argument of Perigee(rad): 2.922259992 Mean Anom(rad): -2.013336303 Af0(s): 0.0005441528564 Af1(s/s): 0 week: 356 ******** Week 356 almanac for PRN-20 ******** ID: 20 Health: 255 Eccentricity: 0.0004878044128 Time of Applicability(s): 503808 Orbital Inclination(rad): 0.9595972614 Rate of Right Ascen(r/s): -8.126052768e-09 SQRT(A) (m 1/2): 5153.591797 Right Ascen at Week(rad): -0.6482263509 Argument of Perigee(rad): 1.057535568 Mean Anom(rad): 2.227250598 Af0(s): 0 Af1(s/s): 0 week: 356 ******** Week 356 almanac for PRN-21 ******** ID: 21 Health: 0 Eccentricity: 0.0006527900696 Time of Applicability(s): 503808 Orbital Inclination(rad): 0.9622158145 Rate of Right Ascen(r/s): -7.920329913e-09 SQRT(A) (m 1/2): 5153.70166 Right Ascen at Week(rad): -1.654072085 Argument of Perigee(rad): -0.4297647915 Mean Anom(rad): -1.153963264 Af0(s): 0.0003112674927 Af1(s/s): 7.275958e-12 week: 356 ******** Week 356 almanac for PRN-22 ******** ID: 22 Health: 0 Eccentricity: 0.01216220856 Time of Applicability(s): 503808 Orbital Inclination(rad): 0.9574221245 Rate of Right Ascen(r/s): -7.943188008e-09 SQRT(A) (m 1/2): 5153.57666 Right Ascen at Week(rad): 1.556814482 Argument of Perigee(rad): -0.9948093863 Mean Anom(rad): 3.077735836 Af0(s): -3.919106445e-05 Af1(s/s): 3.637979e-12 week: 356 ******** Week 356 almanac for PRN-23 ******** ID: 23 Health: 0 Eccentricity: 0.006012439728 Time of Applicability(s): 503808 Orbital Inclination(rad): 0.987340742 Rate of Right Ascen(r/s): -7.668890868e-09 SQRT(A) (m 1/2): 5153.656738 Right Ascen at Week(rad): -1.695541248 Argument of Perigee(rad): -2.740619589 Mean Anom(rad): -0.6730722707 Af0(s): 0.0004815978882 Af1(s/s): 3.637979e-12 week: 356 ******** Week 356 almanac for PRN-24 ******** ID: 24 Health: 0 Eccentricity: 0.01786327362 Time of Applicability(s): 503808 Orbital Inclination(rad): 0.9352513085 Rate of Right Ascen(r/s): -8.068907531e-09 SQRT(A) (m 1/2): 5153.597656 Right Ascen at Week(rad): 0.3106910308 Argument of Perigee(rad): 1.131967342 Mean Anom(rad): 0.6606888213 Af0(s): -0.00010476073 Af1(s/s): 1.455192e-11 week: 356 ******** Week 356 almanac for PRN-25 ******** ID: 25 Health: 0 Eccentricity: 0.0129532814 Time of Applicability(s): 503808 Orbital Inclination(rad): 0.9472115649 Rate of Right Ascen(r/s): -7.988904198e-09 SQRT(A) (m 1/2): 5153.682617 Right Ascen at Week(rad): 1.442851619 Argument of Perigee(rad): 1.153693993 Mean Anom(rad): -1.101231176 Af0(s): 0.0003519659058 Af1(s/s): -3.637979e-12 week: 356 ******** Week 356 almanac for PRN-26 ******** ID: 26 Health: 0 Eccentricity: 0.01099538803 Time of Applicability(s): 503808 Orbital Inclination(rad): 0.9280188287 Rate of Right Ascen(r/s): -8.171768958e-09 SQRT(A) (m 1/2): 5153.649414 Right Ascen at Week(rad): 1.368740048 Argument of Perigee(rad): 0.7058015634 Mean Anom(rad): -1.925979917 Af0(s): -0.0002554955933 Af1(s/s): -7.275958e-12 week: 356 ******** Week 356 almanac for PRN-27 ******** ID: 27 Health: 0 Eccentricity: 0.01428127289 Time of Applicability(s): 503808 Orbital Inclination(rad): 0.952916056 Rate of Right Ascen(r/s): -8.228914196e-09 SQRT(A) (m 1/2): 5153.60791 Right Ascen at Week(rad): 2.498629251 Argument of Perigee(rad): 0.8727530516 Mean Anom(rad): 2.615483309 Af0(s): -2.788594971e-05 Af1(s/s): -1.091394e-11 week: 356 ******** Week 356 almanac for PRN-28 ******** ID: 28 Health: 0 Eccentricity: 0.0004057884216 Time of Applicability(s): 503808 Orbital Inclination(rad): 0.9621858539 Rate of Right Ascen(r/s): -7.748894201e-09 SQRT(A) (m 1/2): 5153.731445 Right Ascen at Week(rad): 0.3927166837 Argument of Perigee(rad): 0.2038235777 Mean Anom(rad): -0.170378602 Af0(s): -0.000474061145 Af1(s/s): 7.275958e-12 week: 356 ******** Week 356 almanac for PRN-29 ******** ID: 29 Health: 0 Eccentricity: 0.003296852112 Time of Applicability(s): 503808 Orbital Inclination(rad): 0.9622218066 Rate of Right Ascen(r/s): -8.137481816e-09 SQRT(A) (m 1/2): 5153.717285 Right Ascen at Week(rad): 2.5877799 Argument of Perigee(rad): 2.742432578 Mean Anom(rad): 2.488947496 Af0(s): -0.0003007160522 Af1(s/s): 7.275958e-12 week: 356 ******** Week 356 almanac for PRN-30 ******** ID: 30 Health: 0 Eccentricity: 0.007959842682 Time of Applicability(s): 503808 Orbital Inclination(rad): 0.9364796915 Rate of Right Ascen(r/s): -8.000333246e-09 SQRT(A) (m 1/2): 5153.71875 Right Ascen at Week(rad): 0.4100717139 Argument of Perigee(rad): -2.334945337 Mean Anom(rad): -0.4561686605 Af0(s): 8.893356934e-05 Af1(s/s): 1.091394e-11 week: 356 ******** Week 356 almanac for PRN-31 ******** ID: 31 Health: 0 Eccentricity: 0.01084089279 Time of Applicability(s): 503808 Orbital Inclination(rad): 0.9549893269 Rate of Right Ascen(r/s): -7.806039438e-09 SQRT(A) (m 1/2): 5153.720703 Right Ascen at Week(rad): 0.4428309672 Argument of Perigee(rad): 0.9351444245 Mean Anom(rad): -1.405336126 Af0(s): -0.000133400354 Af1(s/s): 3.637979e-12 week: 356 ******** Week 356 almanac for PRN-32 ******** ID: 32 Health: 0 Eccentricity: 0.009269714355 Time of Applicability(s): 503808 Orbital Inclination(rad): 0.9676746289 Rate of Right Ascen(r/s): -8.034620388e-09 SQRT(A) (m 1/2): 5153.666016 Right Ascen at Week(rad): -0.636963801 Argument of Perigee(rad): -2.013369259 Mean Anom(rad): -3.073002442 Af0(s): -8.29041748e-05 Af1(s/s): 1.818989e-11 week: 356